This is the latest recevied weather packets stored in our database for station/object KC7UNY-13. If no packets are shown the sender has not sent any weather packets the latest 10 day(s).
| Time | Temp. | Humidity | Pressure | Rain* | Wind** | Luminosity | Snow |
|---|---|---|---|---|---|---|---|
| 1777604027 | 28.89° C | 19% | 1004.9 hPa | 0 mm | - | 0 W/m² | - |
| 1777603725 | 28.89° C | 19% | 1004.9 hPa | 0 mm | - | 0 W/m² | - |
| 1777603421 | 28.89° C | 18% | 1004.9 hPa | 0 mm | - | 0 W/m² | - |
| 1777603117 | 28.89° C | 18% | 1004.6 hPa | 0 mm | - | 0 W/m² | - |
| 1777602811 | 28.89° C | 19% | 1004.6 hPa | 0 mm | - | 0 W/m² | - |
| 1777602507 | 28.89° C | 18% | 1004.6 hPa | 0 mm | - | 0 W/m² | - |
| 1777602203 | 28.89° C | 19% | 1004.5 hPa | 0 mm | - | 0 W/m² | - |
| 1777601899 | 29.44° C | 18% | 1004.4 hPa | 0 mm | - | 0 W/m² | - |
| 1777601594 | 28.89° C | 18% | 1004.5 hPa | 0 mm | - | 1 W/m² | - |
| 1777601289 | 29.44° C | 19% | 1004.3 hPa | 0 mm | - | 2 W/m² | - |
| 1777600987 | 29.44° C | 18% | 1004.4 hPa | 0 mm | - | 3 W/m² | - |
| 1777600684 | 29.44° C | 18% | 1004.3 hPa | 0 mm | - | 4 W/m² | - |
| 1777600379 | 29.44° C | 18% | 1004.4 hPa | 0 mm | - | 6 W/m² | - |
| 1777600075 | 30° C | 18% | 1004.4 hPa | 0 mm | - | 8 W/m² | - |
| 1777599771 | 30° C | 17% | 1004.3 hPa | 0 mm | - | 11 W/m² | - |
| 1777599467 | 30° C | 17% | 1004.2 hPa | 0 mm | - | 14 W/m² | - |
| 1777599164 | 30° C | 17% | 1004.3 hPa | 0 mm | - | 18 W/m² | - |
| 1777598864 | 30° C | 17% | 1004.1 hPa | 0 mm | - | 23 W/m² | - |
| 1777598558 | 30° C | 18% | 1004.4 hPa | 0 mm | - | 30 W/m² | - |
| 1777598253 | 30.56° C | 18% | 1004.2 hPa | 0 mm | - | 37 W/m² | - |
| 1777597952 | 30.56° C | 18% | 1004.3 hPa | 0 mm | - | 45 W/m² | - |
| 1777597651 | 30.56° C | 18% | 1004.3 hPa | 0 mm | - | 52 W/m² | - |
| 1777597346 | 30.56° C | 17% | 1004.4 hPa | 0 mm | - | 57 W/m² | - |
| 1777597042 | 30.56° C | 17% | 1004.4 hPa | 0 mm | - | 62 W/m² | - |
| 1777596739 | 30.56° C | 18% | 1004.3 hPa | 0 mm | - | 68 W/m² | - |
* Rain latest hour (hover to see other rain measurements)
** Current wind speed in m/s (hover to see current wind gust speed)